Location: Newark
(41.0400°S, 62.7845°W)
Time: 21:48:30
(UTC+00:00)

Courier 1B Rocket - Pass Details

Date: 04 December 2021
Orbit: 920 x 1202 km, 28.2° (Epoch: 21 January)

Event Time Altitude Azimuth Distance (km) Brightness Sun altitude
Rises 19:51:49 0° 282° (WNW) 4,108 9.2 38.6°
Reaches altitude 10° 19:56:25 10° 306° (NW) 3,126 8.5 37.7°
Maximum altitude 20:00:00 14° 333° (NNW) 2,818 7.9 37.1°
Drops below altitude 10° 20:03:33 10° 1° (N) 3,067 7.7 36.4°
Sets 20:07:59 0° 25° (NNE) 3,971 8.0 35.5°
